KC5TIL Weather Reports


Display with metric or nautical units.
time (UTC)temp
F
wind
direction
speed
MPH
gust
MPH
rain 1hr
in
rain 24hr
in
rain mn
in
humidity
%
barometer
mb
20260902143115 90 86 2.0 2.0 0.00 0.00 0.00 60 1017.0
20260902142610 89 128 1.0 2.0 0.00 0.00 0.00 61 1017.0
20260902142106 88 89 1.0 1.0 0.00 0.00 0.00 62 1016.8
20260902141605 87 103 1.0 2.0 0.00 0.00 0.00 63 1016.7
20260902141101 87 85 1.0 2.0 0.00 0.00 0.00 63 1016.8
20260902140555 87 98 0.0 1.0 0.00 0.00 0.00 64 1016.9
20260902140051 87 130 1.0 2.0 0.00 0.00 0.00 64 1017.0
20260902135550 86 133 2.0 3.0 0.00 0.00 0.00 66 1017.1
20260902135051 86 136 1.0 2.0 0.00 0.00 0.00 65 1017.1
20260902134546 86 159 2.0 3.0 0.00 0.00 0.00 66 1017.0
20260902134041 85 138 1.0 3.0 0.00 0.00 0.00 67 1017.1
20260902133535 85 102 3.0 5.0 0.00 0.00 0.00 67 1017.1
20260902133030 85 102 0.0 3.0 0.00 0.00 0.00 68 1017.0
20260902132525 85 124 1.0 3.0 0.00 0.00 0.00 69 1017.4
20260902132020 85 127 1.0 1.0 0.00 0.00 0.00 69 1016.9
20260902131517 84 135 1.0 2.0 0.00 0.00 0.00 69 1016.8
20260902131016 84 113 0.0 2.0 0.00 0.00 0.00 70 1017.1
20260902130512 84 137 0.0 2.0 0.00 0.00 0.00 70 1016.9
20260902130008 83 131 0.0 2.0 0.00 0.00 0.00 71 1016.8
20260902125503 83 142 2.0 5.0 0.00 0.00 0.00 70 1016.8
20260902124958 82 131 1.0 2.0 0.00 0.00 0.00 72 1016.9
20260902124455 81 163 1.0 3.0 0.00 0.00 0.00 73 1016.9
20260902123949 81 122 1.0 2.0 0.00 0.00 0.00 74 1016.7
20260902123446 80 168 1.0 2.0 0.00 0.00 0.00 74 1016.7
20260902122944 80 131 1.0 1.0 0.00 0.00 0.00 75 1016.4
20260902122440 80 175 1.0 3.0 0.00 0.00 0.00 75 1016.6
20260902121936 80 145 1.0 3.0 0.00 0.00 0.00 75 1016.5
20260902121436 80 127 1.0 2.0 0.00 0.00 0.00 76 1016.3
20260902120930 80 129 0.0 1.0 0.00 0.00 0.00 77 1016.5
20260902120427 80 135 0.0 1.0 0.00 0.00 0.00 77 1016.6
20260902115926 80 131 0.0 1.0 0.00 0.00 0.00 76 1016.4
20260902115422 80 138 1.0 2.0 0.00 0.00 0.00 76 1016.5
20260902114919 80 146 1.0 2.0 0.00 0.00 0.00 76 1016.5
20260902114414 80 130 1.0 1.0 0.00 0.00 0.00 76 1016.6
20260902113909 80 129 0.0 1.0 0.00 0.00 0.00 76 1016.6
20260902113405 80 126 0.0 1.0 0.00 0.00 0.00 76 1016.5
20260902112904 80 127 0.0 0.0 0.00 0.00 0.00 75 1016.5
20260902112401 80 124 0.0 0.0 0.00 0.00 0.00 76 1016.8
20260902111856 80 127 0.0 0.0 0.00 0.00 0.00 76 1016.7
20260902111353 80 144 0.0 1.0 0.00 0.00 0.00 76 1016.6
20260902110848 80 130 0.0 0.0 0.00 0.00 0.00 76 1016.8
20260902110344 80 128 0.0 1.0 0.00 0.00 0.00 76 1016.7
20260902105843 80 114 0.0 0.0 0.00 0.00 0.00 76 1016.5
20260902105338 80 144 0.0 2.0 0.00 0.00 0.00 76 1016.6
20260902104833 80 138 1.0 1.0 0.00 0.00 0.00 76 1016.8
20260902104329 80 137 0.0 1.0 0.00 0.00 0.00 76 1016.7
20260902103824 80 136 1.0 1.0 0.00 0.00 0.00 76 1016.8
20260902103319 80 128 0.0 1.0 0.00 0.00 0.00 77 1016.7
20260902102814 80 128 0.0 0.0 0.00 0.00 0.00 76 1016.7
20260902102312 80 137 0.0 0.0 0.00 0.00 0.00 76 1016.7
20260902101807 80 127 0.0 0.0 0.00 0.00 0.00 76 1016.5
20260902101301 80 131 0.0 0.0 0.00 0.00 0.00 75 1016.5
20260902100801 80 120 0.0 1.0 0.00 0.00 0.00 75 1016.5
20260902100255 80 119 0.0 2.0 0.00 0.00 0.00 74 1016.4
20260902095750 80 121 0.0 0.0 0.00 0.00 0.00 75 1016.5
20260902095250 80 115 0.0 0.0 0.00 0.00 0.00 75 1016.5
20260902094744 80 128 0.0 0.0 0.00 0.00 0.00 74 1016.5
20260902094241 80 118 0.0 1.0 0.00 0.00 0.00 74 1016.5
20260902093740 80 117 0.0 1.0 0.00 0.00 0.00 74 1016.5
20260902093235 81 116 0.0 0.0 0.00 0.00 0.00 73 1016.4
20260902092734 81 113 0.0 0.0 0.00 0.00 0.00 73 1016.3
20260902092229 81 119 0.0 0.0 0.00 0.00 0.00 73 1016.6
20260902091724 81 120 0.0 0.0 0.00 0.00 0.00 72 1016.5
20260902091220 81 128 0.0 0.0 0.00 0.00 0.00 71 1016.6
20260902090716 81 127 0.0 1.0 0.00 0.00 0.00 71 1016.4
20260902090215 81 117 0.0 1.0 0.00 0.00 0.00 71 1016.6
20260902085710 82 90 0.0 1.0 0.00 0.00 0.00 71 1016.5
20260902085205 82 122 0.0 0.0 0.00 0.00 0.00 70 1016.6
20260902084701 82 113 0.0 0.0 0.00 0.00 0.00 70 1016.5
20260902084157 82 94 0.0 0.0 0.00 0.00 0.00 70 1016.4
20260902083652 82 124 1.0 1.0 0.00 0.00 0.00 69 1016.6
20260902083151 82 120 0.0 0.0 0.00 0.00 0.00 69 1016.7
20260902082647 82 124 0.0 1.0 0.00 0.00 0.00 69 1016.5
20260902082144 82 151 0.0 1.0 0.00 0.00 0.00 69 1016.5
20260902081639 82 117 0.0 0.0 0.00 0.00 0.00 69 1016.6
20260902081134 83 112 0.0 1.0 0.00 0.00 0.00 69 1016.7
20260902080629 83 126 0.0 1.0 0.00 0.00 0.00 68 1016.6
20260902080126 83 110 1.0 1.0 0.00 0.00 0.00 68 1016.5
20260902075625 83 147 1.0 2.0 0.00 0.00 0.00 68 1016.7
20260902075122 83 122 1.0 1.0 0.00 0.00 0.00 68 1016.5
20260902074617 83 111 0.0 1.0 0.00 0.00 0.00 67 1016.5
20260902074112 84 110 1.0 1.0 0.00 0.00 0.00 67 1016.7
20260902073607 84 171 1.0 2.0 0.00 0.00 0.00 67 1016.9
20260902073103 84 132 1.0 2.0 0.00 0.00 0.00 67 1016.5
20260902072559 84 129 0.0 2.0 0.00 0.00 0.00 67 1016.8
20260902072056 84 140 1.0 1.0 0.00 0.00 0.00 67 1016.7
20260902071555 84 150 0.0 1.0 0.00 0.00 0.00 66 1016.8
20260902071051 84 132 0.0 2.0 0.00 0.00 0.00 66 1016.9
20260902070547 84 127 0.0 2.0 0.00 0.00 0.00 66 1016.8
20260902070041 84 121 1.0 1.0 0.00 0.00 0.00 66 1016.7
20260902065535 85 164 1.0 2.0 0.00 0.00 0.00 66 1016.7
20260902065030 85 127 2.0 2.0 0.00 0.00 0.00 65 1016.6
20260902064526 85 140 0.0 1.0 0.00 0.00 0.00 65 1016.6
20260902064022 85 150 1.0 2.0 0.00 0.00 0.00 65 1016.6
20260902063521 85 126 1.0 2.0 0.00 0.00 0.00 65 1016.6
20260902063016 85 98 0.0 2.0 0.00 0.00 0.00 65 1016.7
20260902062514 85 106 1.0 2.0 0.00 0.00 0.00 65 1016.5
20260902062010 85 107 1.0 1.0 0.00 0.00 0.00 65 1016.7
20260902061504 85 157 0.0 2.0 0.00 0.00 0.00 65 1016.5
20260902061000 85 133 0.0 2.0 0.00 0.00 0.00 65 1016.6
20260902060457 85 129 1.0 2.0 0.00 0.00 0.00 64 1016.4
20260902055952 85 125 0.0 2.0 0.00 0.00 0.00 64 1016.6
20260902055448 86 146 1.0 3.0 0.00 0.00 0.00 64 1016.6
20260902054944 86 89 3.0 5.0 0.00 0.00 0.00 64 1016.3
20260902054438 86 146 2.0 2.0 0.00 0.00 0.00 63 1016.2
20260902053934 86 130 1.0 2.0 0.00 0.00 0.00 64 1016.2
20260902053429 86 127 0.0 2.0 0.00 0.00 0.00 63 1016.2
20260902052928 86 124 1.0 2.0 0.00 0.00 0.00 63 1016.2
20260902052423 86 108 2.0 2.0 0.00 0.00 0.00 62 1016.1
20260902051919 87 129 1.0 1.0 0.00 0.00 0.00 61 1016.1
20260902051414 87 133 0.0 2.0 0.00 0.00 0.00 61 1016.0
20260902050913 87 83 1.0 3.0 0.00 0.00 0.00 61 1015.9
20260902050412 87 141 2.0 5.0 0.00 0.00 0.00 60 1016.2
20260902045907 87 116 1.0 3.0 0.00 0.00 0.00 61 1016.1
20260902045402 88 141 2.0 3.0 0.00 0.00 0.00 60 1016.1
20260902044859 88 156 2.0 3.0 0.00 0.00 0.00 59 1016.1
20260902044354 88 96 3.0 6.0 0.00 0.00 0.00 59 1016.1
20260902043849 88 145 3.0 6.0 0.00 0.00 0.00 58 1016.1
20260902043344 89 144 3.0 8.0 0.00 0.00 0.00 58 1016.0
20260902042839 89 148 2.0 3.0 0.00 0.00 0.00 58 1015.9
20260902042338 89 129 2.0 5.0 0.00 0.00 0.00 58 1015.9
20260902041833 90 161 3.0 7.0 0.00 0.00 0.00 56 1015.7
20260902041328 90 117 1.0 2.0 0.00 0.00 0.00 57 1015.6
20260902040826 89 143 0.0 1.0 0.00 0.00 0.00 59 1015.6
20260902040323 90 148 1.0 2.0 0.00 0.00 0.00 57 1015.2
20260902035821 89 140 1.0 2.0 0.00 0.00 0.00 58 1015.1
20260902035317 89 136 1.0 1.0 0.00 0.00 0.00 59 1015.5
20260902034815 90 134 1.0 1.0 0.00 0.00 0.00 59 1015.5
20260902034311 90 132 1.0 1.0 0.00 0.00 0.00 58 1015.5
20260902033808 90 131 1.0 1.0 0.00 0.00 0.00 58 1015.4
20260902033304 90 136 0.0 1.0 0.00 0.00 0.00 58 1015.5
20260902032803 90 142 0.0 1.0 0.00 0.00 0.00 57 1015.4
20260902032258 90 127 0.0 1.0 0.00 0.00 0.00 57 1015.5
20260902031757 90 136 1.0 1.0 0.00 0.00 0.00 58 1015.3
20260902031253 90 133 0.0 2.0 0.00 0.00 0.00 56 1015.4
20260902030749 90 134 1.0 2.0 0.00 0.00 0.00 57 1015.2
20260902030244 91 140 0.0 1.0 0.00 0.00 0.00 57 1015.2
20260902025742 91 130 0.0 1.0 0.00 0.00 0.00 56 1015.3
20260902025238 91 129 0.0 5.0 0.00 0.00 0.00 55 1015.1
20260902024732 91 150 2.0 2.0 0.00 0.00 0.00 55 1015.0
20260902024228 91 137 1.0 2.0 0.00 0.00 0.00 55 1015.0
20260902023724 91 133 1.0 1.0 0.00 0.00 0.00 57 1014.9
20260902023219 91 130 1.0 1.0 0.00 0.00 0.00 57 1014.7
20260902022718 91 130 1.0 1.0 0.00 0.00 0.00 57 1014.8
20260902022214 91 136 0.0 1.0 0.00 0.00 0.00 56 1014.5
20260902021709 91 138 0.0 1.0 0.00 0.00 0.00 56 1014.5
20260902021203 91 132 1.0 1.0 0.00 0.00 0.00 55 1014.6
20260902020700 91 130 1.0 1.0 0.00 0.00 0.00 55 1014.3
20260902020155 91 125 0.0 1.0 0.00 0.00 0.00 55 1014.2
20260902015651 92 141 1.0 1.0 0.00 0.00 0.00 53 1014.2
20260902015148 92 156 1.0 1.0 0.00 0.00 0.00 55 1014.3
20260902014643 92 128 1.0 1.0 0.00 0.00 0.00 56 1014.1
20260902014138 92 135 0.0 1.0 0.00 0.00 0.00 54 1014.1
20260902013637 92 119 1.0 2.0 0.00 0.00 0.00 53 1014.1
20260902013134 92 136 1.0 1.0 0.00 0.00 0.00 54 1014.0
20260902012629 92 125 0.0 2.0 0.00 0.00 0.00 56 1013.9
20260902012124 93 132 0.0 1.0 0.00 0.00 0.00 56 1013.9
20260902011620 93 104 1.0 2.0 0.00 0.00 0.00 56 1013.6
20260902011119 93 131 1.0 1.0 0.00 0.00 0.00 56 1013.7
20260902010619 93 111 1.0 1.0 0.00 0.00 0.00 55 1013.8
20260902010115 94 105 1.0 2.0 0.00 0.00 0.00 54 1013.7
20260902005612 94 104 1.0 2.0 0.00 0.00 0.00 53 1013.5
20260902005109 94 77 2.0 2.0 0.00 0.00 0.00 51 1013.7
20260902004608 94 128 1.0 2.0 0.00 0.00 0.00 54 1013.6
20260902004103 94 118 1.0 2.0 0.00 0.00 0.00 55 1013.5
20260902003558 94 97 1.0 2.0 0.00 0.00 0.00 53 1013.5
20260902003054 95 131 1.0 2.0 0.00 0.00 0.00 50 1013.6
20260902002549 95 124 0.0 2.0 0.00 0.00 0.00 51 1013.6
20260902002044 95 101 2.0 2.0 0.00 0.00 0.00 50 1013.6
20260902001538 95 121 2.0 2.0 0.00 0.00 0.00 49 1013.7
20260902001034 96 100 1.0 3.0 0.00 0.00 0.00 49 1013.7
20260902000528 96 139 1.0 6.0 0.00 0.00 0.00 45 1013.8
20260902000024 96 136 0.0 1.0 0.00 0.00 0.00 51 1013.7
20260901235518 96 102 2.0 5.0 0.00 0.00 0.00 48 1013.7
20260901235014 96 141 2.0 5.0 0.00 0.00 0.00 48 1013.9
20260901234512 96 76 5.0 7.0 0.00 0.00 0.00 46 1013.9
20260901234008 96 119 2.0 5.0 0.00 0.00 0.00 46 1013.7
20260901233503 96 105 2.0 6.0 0.00 0.00 0.00 48 1013.9
20260901232959 97 148 2.0 5.0 0.00 0.00 0.00 50 1014.1
20260901232454 97 102 1.0 3.0 0.00 0.00 0.00 51 1013.8
20260901231949 98 101 1.0 3.0 0.00 0.00 0.00 48 1013.7
20260901231445 98 68 2.0 3.0 0.00 0.00 0.00 43 1013.8
20260901230942 99 133 2.0 3.0 0.00 0.00 0.00 41 1013.6
20260901230441 99 143 1.0 3.0 0.00 0.00 0.00 45 1013.8
20260901225936 99 138 3.0 5.0 0.00 0.00 0.00 44 1013.7
20260901225436 98 66 2.0 2.0 0.00 0.00 0.00 43 1014.0
20260901224931 98 101 1.0 5.0 0.00 0.00 0.00 46 1013.9
20260901224427 99 85 2.0 5.0 0.00 0.00 0.00 41 1013.8
20260901223923 98 144 1.0 3.0 0.00 0.00 0.00 41 1013.9
20260901223418 100 134 3.0 5.0 0.00 0.00 0.00 43 1013.8
20260901222914 100 140 1.0 2.0 0.00 0.00 0.00 43 1014.0
20260901222410 100 98 1.0 7.0 0.00 0.00 0.00 42 1013.9
20260901221906 99 133 0.0 3.0 0.00 0.00 0.00 39 1013.8
20260901221401 100 97 0.0 1.0 0.00 0.00 0.00 38 1013.8
20260901220856 100 122 1.0 2.0 0.00 0.00 0.00 38 1014.0
20260901220354 100 163 1.0 2.0 0.00 0.00 0.00 40 1013.8
20260901215854 99 61 1.0 6.0 0.00 0.00 0.00 39 1013.9
20260901215353 100 138 3.0 5.0 0.00 0.00 0.00 39 1014.0
20260901214852 100 116 1.0 5.0 0.00 0.00 0.00 43 1014.1
20260901214351 100 176 3.0 3.0 0.00 0.00 0.00 39 1014.1
20260901213850 100 142 2.0 2.0 0.00 0.00 0.00 39 1014.1
20260901213345 99 89 2.0 3.0 0.00 0.00 0.00 40 1014.1
20260901212839 98 75 1.0 3.0 0.00 0.00 0.00 43 1014.0
20260901212335 98 120 1.0 2.0 0.00 0.00 0.00 43 1014.2
20260901211831 100 121 2.0 3.0 0.00 0.00 0.00 40 1014.2
20260901211327 99 54 3.0 5.0 0.00 0.00 0.00 40 1014.2
20260901210822 100 137 0.0 5.0 0.00 0.00 0.00 41 1014.2
20260901210318 100 131 2.0 3.0 0.00 0.00 0.00 40 1014.3
20260901205814 97 124 1.0 3.0 0.00 0.00 0.00 42 1014.3
20260901205314 97 159 1.0 2.0 0.00 0.00 0.00 46 1014.3
20260901204809 98 154 2.0 3.0 0.00 0.00 0.00 42 1014.6
20260901204306 100 133 2.0 7.0 0.00 0.00 0.00 43 1014.5
20260901203805 101 128 3.0 3.0 0.00 0.00 0.00 39 1014.5
20260901203300 100 82 2.0 2.0 0.00 0.00 0.00 39 1014.8
20260901202759 100 74 2.0 3.0 0.00 0.00 0.00 39 1014.5
20260901202255 100 120 2.0 3.0 0.00 0.00 0.00 39 1014.8
20260901201751 101 122 2.0 6.0 0.00 0.00 0.00 42 1014.9
20260901201249 100 118 2.0 5.0 0.00 0.00 0.00 41 1014.6
20260901200744 101 96 2.0 3.0 0.00 0.00 0.00 38 1014.8
20260901200240 98 91 2.0 3.0 0.00 0.00 0.00 43 1015.1
20260901195738 96 88 1.0 2.0 0.00 0.00 0.00 45 1014.9
20260901195232 97 110 1.0 2.0 0.00 0.00 0.00 47 1015.2
20260901194728 98 71 2.0 6.0 0.00 0.00 0.00 45 1015.1
20260901194222 98 129 3.0 3.0 0.00 0.00 0.00 44 1015.3
20260901193718 98 120 1.0 3.0 0.00 0.00 0.00 45 1015.2
20260901193212 99 111 1.0 2.0 0.00 0.00 0.00 42 1015.2
20260901192707 98 118 2.0 2.0 0.00 0.00 0.00 48 1015.5
20260901192202 96 119 0.0 1.0 0.00 0.00 0.00 48 1015.7
20260901191658 96 141 2.0 5.0 0.00 0.00 0.00 46 1015.7
20260901191154 96 94 0.0 5.0 0.00 0.00 0.00 51 1015.8
20260901190649 98 69 4.0 5.0 0.00 0.00 0.00 46 1015.6
20260901190148 98 94 3.0 8.0 0.00 0.00 0.00 47 1015.7
20260901185647 99 122 1.0 3.0 0.00 0.00 0.00 44 1015.8
20260901185145 99 95 1.0 6.0 0.00 0.00 0.00 44 1015.9
20260901184642 99 135 2.0 3.0 0.00 0.00 0.00 41 1016.0
20260901184137 98 142 1.0 6.0 0.00 0.00 0.00 44 1016.3
20260901183632 98 103 3.0 7.0 0.00 0.00 0.00 46 1016.2
20260901183127 99 92 1.0 3.0 0.00 0.00 0.00 43 1016.3
20260901182623 99 148 1.0 3.0 0.00 0.00 0.00 42 1016.3
20260901182122 98 74 3.0 6.0 0.00 0.00 0.00 45 1016.5
20260901181616 95 110 0.0 3.0 0.00 0.00 0.00 49 1016.4
20260901181116 98 135 2.0 5.0 0.00 0.00 0.00 45 1016.6
20260901180610 96 119 0.0 2.0 0.00 0.00 0.00 45 1016.6
20260901180104 96 135 2.0 3.0 0.00 0.00 0.00 45 1016.9
20260901175557 96 128 1.0 2.0 0.00 0.00 0.00 47 1016.9
20260901175052 96 131 2.0 5.0 0.00 0.00 0.00 46 1016.9
20260901174548 97 144 2.0 2.0 0.00 0.00 0.00 46 1017.2
20260901174044 98 118 0.0 2.0 0.00 0.00 0.00 45 1017.2
20260901173538 97 119 0.0 2.0 0.00 0.00 0.00 46 1017.3
20260901173034 95 80 1.0 2.0 0.00 0.00 0.00 49 1017.3
20260901172530 96 94 2.0 6.0 0.00 0.00 0.00 48 1017.2
20260901172028 96 54 4.0 6.0 0.00 0.00 0.00 46 1017.5
20260901171527 96 149 1.0 3.0 0.00 0.00 0.00 46 1017.3
20260901171025 94 80 0.0 2.0 0.00 0.00 0.00 49 1017.5
20260901170520 96 129 2.0 3.0 0.00 0.00 0.00 48 1017.4
20260901170015 98 126 2.0 5.0 0.00 0.00 0.00 46 1017.6
20260901165509 97 123 2.0 3.0 0.00 0.00 0.00 47 1017.9
20260901165005 97 137 1.0 2.0 0.00 0.00 0.00 47 1017.9
20260901164500 95 95 1.0 3.0 0.00 0.00 0.00 48 1018.0
20260901163954 95 83 3.0 5.0 0.00 0.00 0.00 50 1018.0
20260901163450 95 62 2.0 6.0 0.00 0.00 0.00 50 1018.0
20260901162948 96 72 2.0 6.0 0.00 0.00 0.00 50 1017.9
20260901162444 95 93 1.0 3.0 0.00 0.00 0.00 52 1018.0
20260901161943 96 109 0.0 2.0 0.00 0.00 0.00 48 1018.1
20260901161443 95 115 1.0 3.0 0.00 0.00 0.00 49 1018.2
20260901160937 94 125 1.0 3.0 0.00 0.00 0.00 51 1017.9
20260901160434 95 105 0.0 2.0 0.00 0.00 0.00 53 1018.1
20260901155932 93 120 0.0 3.0 0.00 0.00 0.00 52 1018.0
20260901155427 95 168 3.0 3.0 0.00 0.00 0.00 50 1018.3
20260901154924 94 75 1.0 2.0 0.00 0.00 0.00 51 1018.1
20260901154423 95 100 1.0 3.0 0.00 0.00 0.00 49 1018.2
20260901153918 94 134 0.0 1.0 0.00 0.00 0.00 51 1018.2
20260901153418 94 135 2.0 2.0 0.00 0.00 0.00 52 1018.2
20260901152912 94 134 1.0 1.0 0.00 0.00 0.00 52 1018.2
20260901152406 93 110 0.0 2.0 0.00 0.00 0.00 53 1018.0
20260901151856 93 126 1.0 2.0 0.00 0.00 0.00 54 1018.1
20260901151356 92 136 1.0 2.0 0.00 0.00 0.00 54 1018.2
20260901150855 92 128 0.0 2.0 0.00 0.00 0.00 54 1018.0
20260901150353 91 136 1.0 2.0 0.00 0.00 0.00 55 1018.2
20260901145851 91 157 1.0 2.0 0.00 0.00 0.00 57 1018.0
20260901145350 90 145 1.0 2.0 0.00 0.00 0.00 57 1018.3
20260901144846 91 148 1.0 2.0 0.00 0.00 0.00 58 1018.1
20260901144341 90 122 0.0 1.0 0.00 0.00 0.00 60 1018.3
20260901143837 89 197 1.0 2.0 0.00 0.00 0.00 61 1018.4